Tracking 25701 objects as of 3-Jul-2022
HD Live streaming from Space Station
objects crossing your sky now

STARLINK-2394

Track STARLINK-2394 now!
10-day predictions
STARLINK-2394 is classified as:


NORAD ID: 47813
Int'l Code: 2021-018AC
Perigee: 553.1 km
Apogee: 555.6 km
Inclination: 53.1 °
Period: 95.6 minutes
Semi major axis: 6925 km
RCS: Unknown
Launch date: March 11, 2021
Source: United States (US)
Launch site: AIR FORCE EASTERN TEST RANGE (AFETR)
aabbcc
Your satellite tracking list
Your tracking list is empty




NASA's NSSDC Master Catalog

Two Line Element Set (TLE):
1 47813U 21018AC  22183.35066097  .00000981  00000-0  84781-4 0  9997
2 47813  53.0548 155.5766 0001803  60.9885 299.1284 15.06399911 74003
Source of the keplerian elements: AFSPC